H-2A R/B, 38341

Orbit data source: Space-Track

H-2A R/B, 38341 is space debris in SSO originally from a launch on Thu, 17 May 2012 UTC launched from the Tanegashima Space Center (TNSTA). Debris objects in space refer to the collection of defunct objects orbiting the Earth. Examples of debris include non-operational satellites, rocket bodies, and fragments generated from explosions, collisions, or faulty payload assembly.

Loading next visibility...
Identifier
38341, 2012-025E
Orbit
SSO
Country
Flag of JPJP / JPN
Related business
Manufacturer
MHI Tobishima
Mission
Spacecraft
Bus & Motor
H-2A STAGE 2, Unknown motor
Mass
4,000 kg wet, 4,000 kg dry
Launch date (UTC)
2012-05-17 (14 years ago)
Launch vehicle
Unknown
Launch site
Tanegashima Space Center (TNSTA)
Object type
Payload
Rocket body
Debris
Shape & HBR
Cyl, 4.6 m
Radar Cross Section
35.186 m², Large (>1 m²)

Expand to show TLE details & history
Last TLE update: 5 hours ago

TLE from 5 hours ago
0 H-2A R/B
1 38341U 12025E   25354.80810725  .00001641  00000-0  15555-3 0  9995
2 38341  98.4608 310.6606 0044300 209.4230 150.4494 14.94491632736432
Epoch: 2025-12-20T19:23Z
TLE epoch observation values (Epoch: 2025-12-20T19:23:40.466Z)
Latitude
0.00001°
Longitude
-69.88761°
Altitude
613.844 km
Speed
7.538 km/s
True Right ascension
20h 42m 38s
True Declination
0° 00' 00"
Sunlit
Object was in daylight at epoch
Visualization orbit readout
Latitude
Unknown
Longitude
Unknown
Altitude
Unknown
Speed
Unknown
Apparent Right ascension
Unknown
Apparent Declination
Unknown
Sunlit
N/A
Visualization observer readout
Local Sidereal Time
23:20:53
Azimuth
Unknown
Elevation
Unknown
Doppler factor
Unknown
Orbital elements
Apogee altitude
611.828 km
Perigee altitude
550.17 km
Semi-major axis
6,959.136 km
Eccentricity
0.00443
Inclination
98.4608°
RAAN
310.6606°
Arg. of periapsis
209.423°
True anomaly
150.69856°
Mean anomaly
150.4494°
Eccentric anomaly
150.5741°
Mean motion
3.73861 °/min
Orbital period
96.29 mins
BSTAR
0.00015555
Loading maneuver chart data...
Computing Atmospheric mass density...
Loading historical data...
Loading historical data...
Loading historical data...
Loading historical data...
Loading historical data...
Loading historical data...
Loading historical data...

Documentation

Showing up to 5 results
|